Hourly Data Report for July 15, 2021

VINELAND STATION RCS
ONTARIO
Current Station Operator: ECCC - MSC

43°11'00.000" N
79°24'00.000" W
79.20 m
6139148
71171
XVN

Download Data

Hourly Data (July 2021)
Hourly Data Report for July 15, 2021
TIME
LST
Temp Definition
°C
Dew Point Definition
°C
Rel Hum Definition
%
Precip. Amount Definition
mm

Wind Dir Definition
10's deg

Wind Spd Definition
km/h
Visibility Definition
km
Stn Press Definition
kPa
Hmdx Definition


Wind Chill Definition


Weather Definition


00:00 21.5 18.8 85 LegendMM 20 13   100.86 28   LegendNANA
01:00 21.0 18.9 87 LegendMM 20 11   100.87 28   LegendNANA
02:00 20.7 19.0 90 LegendMM 19 12   100.82 27   LegendNANA
03:00 20.3 18.4 89 LegendMM 20 10   100.83 27   LegendNANA
04:00 20.6 18.1 86 LegendMM 18 10   100.77 27   LegendNANA
05:00 20.5 18.2 86 LegendMM 17 7   100.73 27   LegendNANA
06:00 21.5 18.9 85 LegendMM 19 9   100.72 28   LegendNANA
07:00 23.3 19.6 80 LegendMM 20 15   100.73 31   LegendNANA
08:00 25.1 20.7 77 LegendMM 20 15   100.68 33   LegendNANA
09:00 26.5 20.9 71 LegendMM 21 15   100.63 35   LegendNANA
10:00 28.0 21.5 67 LegendMM 21 20   100.58 37   LegendNANA
11:00 28.0 19.7 61 LegendMM 21 26   100.54 35   LegendNANA
12:00 27.7 21.1 67 LegendMM 21 23   100.48 36   LegendNANA
13:00 28.9 21.1 63 LegendMM 22 28   100.40 37   LegendNANA
14:00 28.6 19.8 59 LegendMM 22 32   100.34 36   LegendNANA
15:00 28.5 20.4 62 LegendMM 21 30   100.29 36   LegendNANA
16:00 28.9 20.6 61 LegendMM 22 32   100.20 37   LegendNANA
17:00 28.4 20.5 62 LegendMM 22 29   100.19 36   LegendNANA
18:00 28.5 20.6 63 LegendMM 22 26   100.11 37   LegendNANA
19:00 26.1 19.4 66 LegendMM 20 27   100.13 33   LegendNANA
20:00 25.3 19.4 70 LegendMM 21 21   100.15 32   LegendNANA
21:00 24.7 19.4 72 LegendMM 22 23   100.22 32   LegendNANA
22:00 23.9 19.8 78 LegendMM 27 14   100.33 31   LegendNANA
23:00 22.5 20.5 89 LegendMM 23 8   100.35 30   LegendNANA

Notes on Data Quality.

Legend

  • E = Estimated
  • M = Missing
  • NA = Not Available*
  • [empty] = Indicates an unobserved value
Date modified: